H1 CPF 2 NER 2022 1 22 9 022 01 glonass137 H2 1705501 9137 42939 2022 1 22 0 0 0 2022 1 25 23 45 0 900 1 1 0 0 0 1 H9 10 0 59601 0.00000 0 -13943101.765 1769755.614 21294744.354 10 0 59601 900.00000 0 -12421368.420 -444031.051 22282226.033 10 0 59601 1800.00000 0 -11014918.900 -2843550.525 22837304.305 10 0 59601 2700.00000 0 -9765871.463 -5374576.489 22949187.243 10 0 59601 3600.00000 0 -8706380.365 -7976004.407 22615671.655 10 0 59601 4500.00000 0 -7857398.525 -10582163.067 21843188.064 10 0 59601 5400.00000 0 -7227926.064 -13125326.627 20646679.911 10 0 59601 6300.00000 0 -6814775.613 -15538323.936 19049318.883 10 0 59601 7200.00000 0 -6602863.820 -17757137.472 17082061.350 10 0 59601 8100.00000 0 -6566016.484 -19723384.537 14783053.793 10 0 59601 9000.00000 0 -6668253.206 -21386577.883 12196897.965 10 0 59601 9900.00000 0 -6865497.329 -22706071.662 9373789.439 10 0 59601 10800.00000 0 -7107638.807 -23652611.609 6368545.686 10 0 59601 11700.00000 0 -7340862.638 -24209424.591 3239542.238 10 0 59601 12600.00000 0 -7510144.015 -24372801.768 47577.608 10 0 59601 13500.00000 0 -7561804.060 -24152150.926 -3145310.796 10 0 59601 14400.00000 0 -7446017.203 -23569515.798 -6277056.348 10 0 59601 15300.00000 0 -7119163.151 -22658582.735 -9286774.281 10 0 59601 16200.00000 0 -6545922.890 -21463216.773 -12115950.016 10 0 59601 17100.00000 0 -5701028.880 -20035589.056 -14709581.030 10 0 59601 18000.00000 0 -4570594.369 -18433974.769 -17017249.465 10 0 59601 18900.00000 0 -3152964.503 -16720314.615 -18994104.334 10 0 59601 19800.00000 0 -1459052.174 -14957642.568 -20601734.105 10 0 59601 20700.00000 0 487856.634 -13207488.154 -21808912.711 10 0 59601 21600.00000 0 2652820.941 -11527362.220 -22592204.785 10 0 59601 22500.00000 0 4990457.309 -9968431.328 -22936418.690 10 0 59601 23400.00000 0 7446597.020 -8573477.830 -22834898.936 10 0 59601 24300.00000 0 9960319.596 -7375230.341 -22289652.687 10 0 59601 25200.00000 0 12466278.693 -6395133.658 -21311308.195 10 0 59601 26100.00000 0 14897224.068 -5642608.681 -19918906.112 10 0 59601 27000.00000 0 17186615.205 -5114832.253 -18139527.834 10 0 59601 27900.00000 0 19271218.297 -4797044.981 -16007767.962 10 0 59601 28800.00000 0 21093578.748 -4663373.044 -13565061.073 10 0 59601 29700.00000 0 22604266.564 -4678128.322 -10858875.712 10 0 59601 30600.00000 0 23763801.338 -4797531.096 -7941791.112 10 0 59601 31500.00000 0 24544176.781 -4971781.812 -4870474.647 10 0 59601 32400.00000 0 24929921.533 -5147393.642 -1704579.889 10 0 59601 33300.00000 0 24918652.343 -5269686.591 1494413.153 10 0 59601 34200.00000 0 24521096.986 -5285337.096 4664392.774 10 0 59601 35100.00000 0 23760586.554 -5144874.750 7743821.853 10 0 59601 36000.00000 0 22672038.976 -4805020.057 10672932.032 10 0 59601 36900.00000 0 21300476.953 -4230763.942 13394882.368 10 0 59601 37800.00000 0 19699142.877 -3397100.653 15856860.019 10 0 59601 38700.00000 0 17927290.027 -2290340.360 18011101.775 10 0 59601 39600.00000 0 16047742.636 -908945.480 19815816.885 10 0 59601 40500.00000 0 14124326.859 736145.301 21235993.785 10 0 59601 41400.00000 0 12219279.672 2621719.978 22244075.658 10 0 59601 42300.00000 0 10390743.496 4713015.757 22820492.235 10 0 59601 43200.00000 0 8690450.423 6964932.334 22954038.056 10 0 59601 44100.00000 0 7161691.929 9323686.703 22642090.168 10 0 59601 45000.00000 0 5837657.968 11728841.827 21890661.163 10 0 59601 45900.00000 0 4740213.968 14115626.118 20714286.382 10 0 59601 46800.00000 0 3879165.987 16417448.325 19135747.095 10 0 59601 47700.00000 0 3252044.124 18568504.127 17185634.470 10 0 59601 48600.00000 0 2844412.598 20506366.607 14901762.064 10 0 59601 49500.00000 0 2630692.953 22174453.154 12328437.457 10 0 59601 50400.00000 0 2575465.347 23524265.978 9515606.541 10 0 59601 51300.00000 0 2635192.674 24517312.674 6517886.506 10 0 59601 52200.00000 0 2760294.305 25126626.265 3393505.936 10 0 59601 53100.00000 0 2897481.363 25337820.761 203172.676 10 0 59601 54000.00000 0 2992254.119 25149637.653 -2991108.434 10 0 59601 54900.00000 0 2991455.046 24573960.167 -6127244.520 10 0 59601 55800.00000 0 2845768.592 23635294.510 -9144266.219 10 0 59601 56700.00000 0 2512060.842 22369739.892 -11983517.602 10 0 59601 57600.00000 0 1955458.994 20823490.703 -14589800.776 10 0 59601 58500.00000 0 1151081.623 19050934.003 -16912452.292 10 0 59601 59400.00000 0 85345.538 17112422.423 -18906330.146 10 0 59601 60300.00000 0 -1243207.056 15071816.152 -20532692.047 10 0 59601 61200.00000 0 -2823596.938 12993897.213 -21759947.884 10 0 59601 62100.00000 0 -4632626.003 10941764.306 -22564272.050 10 0 59601 63000.00000 0 -6635617.011 8974316.992 -22930064.067 10 0 59601 63900.00000 0 -8787644.865 7143934.067 -22850248.942 10 0 59601 64800.00000 0 -11035208.845 5494442.440 -22326411.819 10 0 59601 65700.00000 0 -13318276.730 4059460.554 -21368764.600 10 0 59601 66600.00000 0 -15572616.165 2861184.531 -19995945.369 10 0 59601 67500.00000 0 -17732316.602 1909666.624 -18234654.569 10 0 59601 68400.00000 0 -19732397.151 1202614.849 -16119134.925 10 0 59601 69300.00000 0 -21511391.828 725720.931 -13690505.106 10 0 59601 70200.00000 0 -23013804.640 453501.419 -10995959.919 10 0 59601 71100.00000 0 -24192332.162 350615.387 -8087852.411 10 0 59601 72000.00000 0 -25009760.836 373602.057 -5022675.735 10 0 59601 72900.00000 0 -25440459.841 472964.041 -1859964.615 10 0 59601 73800.00000 0 -25471407.205 595507.283 1338862.150 10 0 59601 74700.00000 0 -25102706.414 686838.076 4511695.282 10 0 59601 75600.00000 0 -24347572.173 693910.890 7596941.337 10 0 59601 76500.00000 0 -23231786.211 567518.661 10534718.067 10 0 59601 77400.00000 0 -21792646.277 264619.812 13268015.370 10 0 59601 78300.00000 0 -20077452.620 -249596.822 15743799.350 10 0 59601 79200.00000 0 -18141595.450 -999996.817 17914038.196 10 0 59601 80100.00000 0 -16046323.460 -2000207.564 19736630.260 10 0 59601 81000.00000 0 -13856286.479 -3251803.363 21176216.838 10 0 59601 81900.00000 0 -11636954.460 -4744003.269 22204864.450 10 0 59601 82800.00000 0 -9452020.003 -6453895.373 22802603.921 10 0 59601 83700.00000 0 -7360891.902 -8347179.259 22957816.331 10 0 59601 84600.00000 0 -5416383.295 -10379396.925 22667458.674 10 0 59601 85500.00000 0 -3662689.879 -12497602.053 21937124.977 10 0 59602 0.00000 0 -2133741.544 -14642399.126 20780941.682 10 0 59602 900.00000 0 -851994.479 -16750269.774 19221298.259 10 0 59602 1800.00000 0 172284.694 -18756087.429 17288419.351 10 0 59602 2700.00000 0 941216.367 -20595720.090 15019783.974 10 0 59602 3600.00000 0 1468977.359 -22208610.177 12459403.735 10 0 59602 4500.00000 0 1780957.654 -23540225.042 9656972.888 10 0 59602 5400.00000 0 1912440.417 -24544275.415 6666906.241 10 0 59602 6300.00000 0 1906861.519 -25184608.613 3547283.252 10 0 59602 7200.00000 0 1813722.626 -25436696.673 358718.832 10 0 59602 8100.00000 0 1686246.752 -25288656.439 -2836817.056 10 0 59602 9000.00000 0 1578876.240 -24741758.260 -5977207.659 10 0 59602 9900.00000 0 1544719.892 -23810401.424 -9001401.410 10 0 59602 10800.00000 0 1633058.296 -22521557.056 -11850603.453 10 0 59602 11700.00000 0 1887013.912 -20913701.626 -14469422.938 10 0 59602 12600.00000 0 2341485.486 -19035285.817 -16806953.179 10 0 59602 13500.00000 0 3021435.088 -16942802.988 -18817763.372 10 0 59602 14400.00000 0 3940601.103 -14698538.225 -20462782.465 10 0 59602 15300.00000 0 5100692.351 -12368092.311 -21710057.999 10 0 59602 16200.00000 0 6491098.175 -10017784.069 -22535375.456 10 0 59602 17100.00000 0 8089127.610 -7712039.390 -22922726.441 10 0 59602 18000.00000 0 9860768.393 -5510875.599 -22864616.955 10 0 59602 18900.00000 0 11761934.814 -3467585.467 -22362210.204 10 0 59602 19800.00000 0 13740152.965 -1626716.632 -21425301.433 10 0 59602 20700.00000 0 15736613.498 -22429.761 -20072125.466 10 0 59602 21600.00000 0 17688506.673 1322697.245 -18329000.748 10 0 59602 22500.00000 0 19531542.594 2398370.385 -16229816.709 10 0 59602 23400.00000 0 21202551.562 3206758.048 -13815374.319 10 0 59602 24300.00000 0 22642056.058 3762140.867 -11132592.476 10 0 59602 25200.00000 0 23796706.893 4090049.049 -8233595.492 10 0 59602 26100.00000 0 24621481.545 4225924.790 -5174699.431 10 0 59602 27000.00000 0 25081552.605 4213367.380 -2015317.027 10 0 59602 27900.00000 0 25153748.013 4102036.126 1183197.419 10 0 59602 28800.00000 0 24827541.828 3945300.602 4358740.403 10 0 59602 29700.00000 0 24105534.021 3797738.323 7449665.437 10 0 59602 30600.00000 0 23003399.173 3712586.312 10395979.487 10 0 59602 31500.00000 0 21549306.322 3739254.785 13140506.142 10 0 59602 32400.00000 0 19782834.242 3921008.480 15629992.975 10 0 59602 33300.00000 0 17753427.527 4292913.933 17816141.745 10 0 59602 34200.00000 0 15518457.877 4880139.640 19656541.710 10 0 59602 35100.00000 0 13140971.307 5696681.211 21115488.440 10 0 59602 36000.00000 0 10687214.733 6744565.705 22164672.820 10 0 59602 36900.00000 0 8224044.463 8013569.273 22783727.392 10 0 59602 37800.00000 0 5816323.716 9481460.864 22960619.970 10 0 59602 38700.00000 0 3524416.490 11114762.840 22691887.246 10 0 59602 39600.00000 0 1401881.176 12869997.818 21982703.977 10 0 59602 40500.00000 0 -506541.215 14695370.828 20846786.306 10 0 59602 41400.00000 0 -2166561.454 16532817.702 19306130.724 10 0 59602 42300.00000 0 -3555531.934 18320335.105 17390593.194 10 0 59602 43200.00000 0 -4663143.227 19994495.727 15137315.880 10 0 59602 44100.00000 0 -5491599.095 21493044.028 12590011.855 10 0 59602 45000.00000 0 -6055263.322 22757464.173 9798120.979 10 0 59602 45900.00000 0 -6379793.989 23735412.564 6815852.811 10 0 59602 46800.00000 0 -6500802.291 24382912.695 3701134.744 10 0 59602 47700.00000 0 -6462093.111 24666219.622 514485.805 10 0 59602 48600.00000 0 -6313562.401 24563275.106 -2682161.833 10 0 59602 49500.00000 0 -6108841.019 24064691.507 -5826670.354 10 0 59602 50400.00000 0 -5902785.542 23174222.337 -8857908.656 10 0 59602 51300.00000 0 -5748923.125 21908699.066 -11716945.411 10 0 59602 52200.00000 0 -5696959.480 20297436.267 -14348199.008 10 0 59602 53100.00000 0 -5790456.282 18381129.728 -16700521.427 10 0 59602 54000.00000 0 -6064777.076 16210293.459 -18728194.659 10 0 59602 54900.00000 0 -6545389.296 13843300.848 -20391820.177 10 0 59602 55800.00000 0 -7246594.762 11344111.843 -21659084.156 10 0 59602 56700.00000 0 -8170742.894 8779780.909 -22505383.841 10 0 59602 57600.00000 0 -9307960.416 6217849.493 -22914303.265 10 0 59602 58500.00000 0 -10636409.546 3723731.373 -22877929.423 10 0 59602 59400.00000 0 -12123064.422 1358199.244 -22397003.192 10 0 59602 60300.00000 0 -13724973.847 -824923.571 -21480902.356 10 0 59602 61200.00000 0 -15390957.873 -2780770.998 -20147457.247 10 0 59602 62100.00000 0 -17063667.709 -4475059.164 -18422602.653 10 0 59602 63000.00000 0 -18681923.055 -5885261.949 -16339872.675 10 0 59602 63900.00000 0 -20183229.221 -7001289.333 -13939748.236 10 0 59602 64800.00000 0 -21506368.778 -7825641.684 -11268869.741 10 0 59602 65700.00000 0 -22593959.173 -8373034.989 -8379130.035 10 0 59602 66600.00000 0 -23394868.977 -8669514.149 -5326665.277 10 0 59602 67500.00000 0 -23866391.295 -8751093.059 -2170763.365 10 0 59602 68400.00000 0 -23976082.906 -8661979.992 1027288.743 10 0 59602 69300.00000 0 -23703191.729 -8452464.225 4205396.126 10 0 59602 70200.00000 0 -23039612.471 -8176554.118 7301862.003 10 0 59602 71100.00000 0 -21990330.130 -7889467.145 10256585.211 10 0 59602 72000.00000 0 -20573332.560 -7645078.547 13012225.548 10 0 59602 72900.00000 0 -18818995.532 -7493436.816 15515314.364 10 0 59602 73800.00000 0 -16768965.747 -7478451.225 17717289.012 10 0 59602 74700.00000 0 -14474588.191 -7635849.207 19575431.310 10 0 59602 75600.00000 0 -11994943.022 -7991489.906 21053692.343 10 0 59602 76500.00000 0 -9394573.240 -8560105.177 22123388.129 10 0 59602 77400.00000 0 -6740997.111 -9344521.363 22763753.215 10 0 59602 78300.00000 0 -4102107.947 -10335395.081 22962341.983 10 0 59602 79200.00000 0 -1543568.365 -11511474.826 22715270.229 10 0 59602 80100.00000 0 873693.654 -12840378.279 22027292.476 10 0 59602 81000.00000 0 3095783.925 -14279853.759 20911713.413 10 0 59602 81900.00000 0 5077841.914 -15779474.036 19390134.802 10 0 59602 82800.00000 0 6785658.977 -17282692.533 17492042.244 10 0 59602 83700.00000 0 8196848.506 -18729176.662 15254239.094 10 0 59602 84600.00000 0 9301520.012 -20057321.173 12720137.727 10 0 59602 85500.00000 0 10102429.672 -21206836.427 9938921.304 10 0 59603 0.00000 0 10614601.808 -22121303.007 6964591.965 10 0 59603 900.00000 0 10864438.123 -22750585.517 3854921.949 10 0 59603 1800.00000 0 10888352.275 -23053002.426 670332.080 10 0 59603 2700.00000 0 10730989.044 -22997161.597 -2527285.845 10 0 59603 3600.00000 0 10443103.308 -22563382.082 -5675775.470 10 0 59603 4500.00000 0 10079189.621 -21744642.004 -8713928.598 10 0 59603 5400.00000 0 9694963.434 -20547011.627 -11582679.744 10 0 59603 6300.00000 0 9344801.367 -18989552.572 -14226258.716 10 0 59603 7200.00000 0 9079249.597 -17103686.751 -16593278.168 10 0 59603 8100.00000 0 8942706.442 -14932060.895 -18637734.691 10 0 59603 9000.00000 0 8971377.750 -12526953.757 -20319903.829 10 0 59603 9900.00000 0 9191591.903 -9948292.321 -21607111.626 10 0 59603 10800.00000 0 9618546.010 -7261359.454 -22474367.981 10 0 59603 11700.00000 0 10255536.479 -4534288.270 -22904849.866 10 0 59603 12600.00000 0 11093706.717 -1835447.182 -22890225.403 10 0 59603 13500.00000 0 12112322.872 769176.071 -22430812.902 10 0 59603 14400.00000 0 13279566.393 3218483.308 -21535572.102 10 0 59603 15300.00000 0 14553810.407 5458564.090 -20221927.929 10 0 59603 16200.00000 0 15885326.646 7444688.602 -18515430.306 10 0 59603 17100.00000 0 17218351.564 9142913.353 -16449256.487 10 0 59603 18000.00000 0 18493425.088 10531233.964 -14063565.529 10 0 59603 18900.00000 0 19649903.930 11600238.245 -11404717.221 10 0 59603 19800.00000 0 20628543.925 12353233.695 -8524370.513 10 0 59603 20700.00000 0 21374042.776 12805845.429 -5478478.960 10 0 59603 21600.00000 0 21837436.144 12985102.865 -2326202.710 10 0 59603 22500.00000 0 21978246.075 12928054.900 871241.685 10 0 59603 23400.00000 0 21766291.095 12679973.082 4051770.993 10 0 59603 24300.00000 0 21183081.520 12292219.622 7153641.194 10 0 59603 25200.00000 0 20222740.925 11819871.061 10116645.912 10 0 59603 26100.00000 0 18892414.702 11319198.576 12883283.853 10 0 59603 27000.00000 0 17212148.099 10845111.752 15399872.571 10 0 59603 27900.00000 0 15214238.342 10448673.991 17617587.139 10 0 59603 28800.00000 0 12942087.421 10174794.481 19493403.745 10 0 59603 29700.00000 0 10448602.794 10060194.030 20990930.447 10 0 59603 30600.00000 0 7794211.923 10131730.450 22081109.503 10 0 59603 31500.00000 0 5044572.534 10405153.979 22742778.181 10 0 59603 32400.00000 0 2268072.841 10884345.211 22963077.721 10 0 59603 33300.00000 0 -466775.453 11561067.856 22737702.867 10 0 59603 34200.00000 0 -3093944.106 12415247.177 22070987.266 10 0 59603 35100.00000 0 -5552388.123 13415763.057 20975823.010 10 0 59603 36000.00000 0 -7788335.584 14521725.204 19473415.520 10 0 59603 36900.00000 0 -9757273.267 15684177.759 17592877.976 10 0 59603 37800.00000 0 -11425546.305 16848162.548 15370672.486 10 0 59603 38700.00000 0 -12771506.081 17955054.974 12849908.037 10 0 59603 39600.00000 0 -13786159.018 18945074.766 10079508.198 10 0 59603 40500.00000 0 -14473289.888 19759866.183 7113264.168 10 0 59603 41400.00000 0 -14849055.104 20345038.908 4008791.138 10 0 59603 42300.00000 0 -14941063.713 20652562.163 826408.266 10 0 59603 43200.00000 0 -14786985.511 20642910.485 -2372035.869 10 0 59603 44100.00000 0 -14432745.717 20286869.807 -5524369.096 10 0 59603 45000.00000 0 -13930383.154 19566926.732 -8569308.687 10 0 59603 45900.00000 0 -13335663.288 18478181.393 -11447657.387 10 0 59603 46800.00000 0 -12705547.762 17028744.453 -14103458.566 10 0 59603 47700.00000 0 -12095628.161 15239600.598 -16485087.431 10 0 59603 48600.00000 0 -11557633.082 13143943.418 -18546256.753 10 0 59603 49500.00000 0 -11137114.335 10786008.748 -20246917.419 10 0 59603 50400.00000 0 -10871410.323 8219454.758 -21554036.303 10 0 59603 51300.00000 0 -10787972.730 5505355.843 -22442236.603 10 0 59603 52200.00000 0 -10903127.178 2709893.430 -22894288.557 10 0 59603 53100.00000 0 -11221320.052 -98160.539 -22901441.396 10 0 59603 54000.00000 0 -11734883.214 -2850063.399 -22463590.497 10 0 59603 54900.00000 0 -12424326.466 -5479716.537 -21589276.802 10 0 59603 55800.00000 0 -13259145.457 -7926167.136 -20295518.696 10 0 59603 56700.00000 0 -14199111.099 -10135893.759 -18607479.708 10 0 59603 57600.00000 0 -15195986.299 -12064781.661 -16557978.366 10 0 59603 58500.00000 0 -16195597.849 -13679706.563 -14186849.669 10 0 59603 59400.00000 0 -17140176.297 -14959662.041 -11540170.357 10 0 59603 60300.00000 0 -17970865.278 -15896384.687 -8669362.882 10 0 59603 61200.00000 0 -18630294.520 -16494452.102 -5630195.474 10 0 59603 62100.00000 0 -19065107.922 -16770850.982 -2481697.754 10 0 59603 63000.00000 0 -19228339.924 -16754034.709 714986.942 10 0 59603 63900.00000 0 -19081539.664 -16482511.254 3897789.880 10 0 59603 64800.00000 0 -18596553.049 -16003021.977 7004922.597 10 0 59603 65700.00000 0 -17756887.202 -15368389.017 9976076.248 10 0 59603 66600.00000 0 -16558599.407 -14635122.731 12753591.074 10 0 59603 67500.00000 0 -15010672.583 -13860890.631 15283573.306 10 0 59603 68400.00000 0 -13134860.886 -13101954.802 17516937.941 10 0 59603 69300.00000 0 -10965011.195 -12410685.903 19410357.417 10 0 59603 70200.00000 0 -8545888.022 -11833258.357 20927098.235 10 0 59603 71100.00000 0 -5931549.912 -11407623.556 22037729.906 10 0 59603 72000.00000 0 -3183344.051 -11161846.078 22720692.953 10 0 59603 72900.00000 0 -367601.388 -11112872.636 22962715.532 10 0 59603 73800.00000 0 2446873.145 -11265785.376 22759070.934 10 0 59603 74700.00000 0 5191412.137 -11613570.914 22113671.121 10 0 59603 75600.00000 0 7800091.722 -12137415.033 21038994.426 10 0 59603 76500.00000 0 10212224.993 -12807511.032 19555848.437 10 0 59603 77400.00000 0 12374640.102 -13584348.250 17692972.152 10 0 59603 78300.00000 0 14243649.183 -14420427.164 15486484.418 10 0 59603 79200.00000 0 15786626.839 -15262329.414 12979188.561 10 0 59603 80100.00000 0 16983132.896 -16053055.997 10219746.072 10 0 59603 81000.00000 0 17825533.055 -16734535.302 7261734.777 10 0 59603 81900.00000 0 18319092.018 -17250195.170 4162609.413 10 0 59603 82800.00000 0 18481535.622 -17547490.117 982584.764 10 0 59603 83700.00000 0 18342101.019 -17580276.428 -2216536.792 10 0 59603 84600.00000 0 17940115.503 -17310933.998 -5372570.196 10 0 59603 85500.00000 0 17323164.572 -16712144.360 -8424160.957 10 0 59604 0.00000 0 16544927.348 -15768248.845 -11311982.351 10 0 59604 900.00000 0 15662771.002 -14476127.884 -13979894.133 10 0 59604 1800.00000 0 14735207.524 -12845564.652 -16376035.810 10 0 59604 2700.00000 0 13819319.409 -10899075.023 -18453838.055 10 0 59604 3600.00000 0 12968264.339 -8671211.133 -20172928.504 10 0 59604 4500.00000 0 12228963.995 -6207366.467 -21499915.934 10 0 59604 5400.00000 0 11640074.585 -3562131.698 -22409037.557 10 0 59604 6300.00000 0 11230324.446 -797269.123 -22882657.236 10 0 59604 7200.00000 0 11017288.515 2020610.454 -22911605.300 10 0 59604 8100.00000 0 11006650.896 4822572.418 -22495353.827 10 0 59604 9000.00000 0 11191986.163 7539980.337 -21642024.251 10 0 59604 9900.00000 0 11555068.241 10107106.843 -20368227.389 10 0 59604 10800.00000 0 12066693.512 12463625.716 -18698739.039 10 0 59604 11700.00000 0 12687983.223 14556882.320 -16666017.384 10 0 59604 12600.00000 0 13372110.093 16343848.684 -14309571.444 10 0 59604 13500.00000 0 14066376.183 17792682.771 -11675192.707 10 0 59604 14400.00000 0 14714554.233 18883827.842 -8814064.637 10 0 59604 15300.00000 0 15259393.475 19610607.013 -5781767.403 10 0 59604 16200.00000 0 15645183.953 19979289.253 -2637197.148 10 0 59604 17100.00000 0 15820270.799 20008625.212 558579.085 10 0 59604 18000.00000 0 15739411.967 19728873.467 3743510.195 10 0 59604 18900.00000 0 15365879.522 19180359.197 6855766.354 10 0 59604 19800.00000 0 14673215.327 18411626.891 9834939.188 10 0 59604 20700.00000 0 13646566.632 17477265.609 12623213.208 10 0 59604 21600.00000 0 12283544.685 16435498.957 15166485.776 10 0 59604 22500.00000 0 10594569.518 15345641.583 17415413.983 10 0 59604 23400.00000 0 8602685.677 14265529.316 19326368.342 10 0 59604 24300.00000 0 6342855.616 13249030.969 20862275.293 10 0 59604 25200.00000 0 3860759.219 12343746.058 21993332.721 10 0 59604 26100.00000 0 1211148.434 11588984.771 22697585.130 10 0 59604 27000.00000 0 -1544175.726 11014114.520 22961347.884 10 0 59604 27900.00000 0 -4338680.974 10637342.012 22779472.651 10 0 59604 28800.00000 0 -7103621.211 10464981.627 22155449.039 10 0 59604 29700.00000 0 -9770650.375 10491240.563 21101340.431 10 0 59604 30600.00000 0 -12274425.284 10698529.701 19637554.892 10 0 59604 31500.00000 0 -14555090.195 11058287.261 17792455.067 10 0 59604 32400.00000 0 -16560540.682 11532280.775 15601813.959 10 0 59604 33300.00000 0 -18248373.220 12074332.864 13108126.352 10 0 59604 34200.00000 0 -19587439.609 12632398.324 10359788.564 10 0 59604 35100.00000 0 -20558941.776 13150905.036 7410161.877 10 0 59604 36000.00000 0 -21157021.438 13573259.812 4316537.409 10 0 59604 36900.00000 0 -21388820.220 13844413.032 1139022.507 10 0 59604 37800.00000 0 -21274008.056 13913373.130 -2060629.582 10 0 59604 38700.00000 0 -20843800.152 13735563.835 -5220223.650 10 0 59604 39600.00000 0 -20139504.404 13274923.572 -8278336.010 10 0 59604 40500.00000 0 -19210661.071 12505657.211 -11175513.319 10 0 59604 41400.00000 0 -18112853.779 11413564.972 -13855432.791 10 0 59604 42300.00000 0 -16905284.770 9996891.318 -16266000.621 10 0 59604 43200.00000 0 -15648217.176 8266656.847 -18360366.919 10 0 59604 44100.00000 0 -14400392.515 6246458.104 -20097837.280 10 0 59604 45000.00000 0 -13216532.427 3971742.709 -21444663.233 10 0 59604 45900.00000 0 -12145029.811 1488589.125 -22374696.497 10 0 59604 46800.00000 0 -11225926.296 -1147958.826 -22869894.679 10 0 59604 47700.00000 0 -10489260.706 -3875934.005 -22920668.976 10 0 59604 48600.00000 0 -9953857.356 -6628780.270 -22526067.568 10 0 59604 49500.00000 0 -9626604.448 -9337882.684 -21693791.448 10 0 59604 50400.00000 0 -9502252.194 -11935188.990 -20440042.579 10 0 59604 51300.00000 0 -9563738.424 -14355814.098 -18789207.427 10 0 59604 52200.00000 0 -9783027.314 -16540519.935 -16773381.924 10 0 59604 53100.00000 0 -10122425.327 -18437968.073 -14431746.986 10 0 59604 54000.00000 0 -10536318.368 -20006652.069 -11809806.518 10 0 59604 54900.00000 0 -10973256.434 -21216429.659 -8958502.557 10 0 59604 55800.00000 0 -11378297.340 -22049591.577 -5933224.695 10 0 59604 56700.00000 0 -11695510.134 -22501423.182 -2792733.051 10 0 59604 57600.00000 0 -11870532.038 -22580236.275 401984.176 10 0 59604 58500.00000 0 -11853070.409 -22306870.681 3588896.058 10 0 59604 59400.00000 0 -11599243.582 -21713687.473 6706133.938 10 0 59604 60300.00000 0 -11073661.197 -20843096.988 9693192.415 10 0 59604 61200.00000 0 -10251155.698 -19745684.271 12492102.720 10 0 59604 62100.00000 0 -9118091.382 -18478011.354 15048555.692 10 0 59604 63000.00000 0 -7673195.120 -17100189.095 17312952.681 10 0 59604 63900.00000 0 -5927873.106 -15673320.780 19241364.201 10 0 59604 64800.00000 0 -3905999.286 -14256924.704 20796378.232 10 0 59604 65700.00000 0 -1643183.247 -12906443.578 21947822.260 10 0 59604 66600.00000 0 814453.038 -11670944.707 22673345.583 10 0 59604 67500.00000 0 3411939.934 -10591106.727 22958851.159 10 0 59604 68400.00000 0 6087498.418 -9697576.540 22798768.985 10 0 59604 69300.00000 0 8774868.409 -9009764.698 22196165.872 10 0 59604 70200.00000 0 11405831.737 -8535129.092 21162689.430 10 0 59604 71100.00000 0 13912826.090 -8268976.551 19718347.035 10 0 59604 72000.00000 0 16231542.252 -8194790.386 17891123.493 10 0 59604 72900.00000 0 18303397.449 -8285069.916 15716444.187 10 0 59604 73800.00000 0 20077782.441 -8502646.593 13236493.274 10 0 59604 74700.00000 0 21513988.990 -8802421.275 10499399.541 10 0 59604 75600.00000 0 22582737.508 -9133449.267 7558305.098 10 0 59604 76500.00000 0 23267241.131 -9441284.965 4470334.580 10 0 59604 77400.00000 0 23563761.651 -9670486.656 1295484.852 10 0 59604 78300.00000 0 23481634.157 -9767175.019 -1904543.111 10 0 59604 79200.00000 0 23042759.498 -9681536.363 -5067547.088 10 0 59604 80100.00000 0 22280586.195 -9370163.750 -8132037.215 10 0 59604 81000.00000 0 21238625.029 -8798135.965 -11038436.086 10 0 59604 81900.00000 0 19968559.326 -7940745.230 -13730241.426 10 0 59604 82800.00000 0 18528030.998 -6784799.568 -16155128.058 10 0 59604 83700.00000 0 16978196.014 -5329443.647 -18265967.412 10 0 59604 84600.00000 0 15381152.533 -3586462.340 -20021744.582 10 0 59604 85500.00000 0 13797350.072 -1580053.163 -21388355.069 99